STARLINK-1371 (45542 NORAD) Tracking and Keplerian Element Data

This shows tracking and keplerian element data for the satellite.

Feedback or suggestion? Click here.




ElementValue
Catalog45542
NameSTARLINK-1371
Epoch Orbit175
Epoch Day189.91668981
Epoch Year2020
RAAN42.6414
Inclination53.0071
Eccentricity0.0001295
Argument of Perigee79.266
Mean Anonmoly264.7836
Mean Motion15.05576649
Decay Rate3.68E-06
L11 45542U 20025M 20189.91668981 .00000368 00000-0 44405-4 0 9995
L22 45542 53.0071 42.6414 0001295 79.2660 264.7836 15.05576649 1753

Live tracking and technical data element details for STARLINK-1371 (NORAD 45542). STARLINK-1371 can be tracked NOW for your location showing map with azimuth and elevation plus other details from your city location.

Track the satellite on the map from your city or location and see movement details for azimuth, elevation, latitude, longitude, range, height, and movement on the map or in text.







IsCatalogInMostPopularTable: catalog: 45542, numindb: 12
Update: records affected: 1



GetName: 45542 STARLINK-1371

Hit Count: updated at: Fri, 10 Jul 2020 03:39:51 GMT